Flag for Germany Weather past 2 weeks in Duisburg, North Rhine-Westphalia, Germany

48 °F

Light rain. Partly cloudy.

Feels Like: 44 °F
Forecast: 47 / 52 °F
Wind: 9 mph from Northwest

Location: Duesseldorf

Current Time: Dec 1, 2015 at 5:44:19 AM

Latest Report: Dec 1, 2015 at 4:50 AM

Visibility: 4 mi

Pressure: 30.09 "Hg

Humidity: 87%

Dew point: 45 °F

Location of DuisburgLocation

Historic Weather in Duisburg — Graph


Duisburg temperature yesterday

Maximum temperature yesterday: 52 °F (at 3:20 PM)
Minimum temperature yesterday: 45 °F (at 8:20 AM)
Average temperature yesterday: 49 °F

Past Weeks' High & Low Weather Summary

High61 °F (Nov 17, 11:20 AM)100% (Nov 17, 3:20 AM)30.27 "Hg (Nov 17, 3:20 AM)
Low32 °F (Nov 22, 7:20 AM)59% (Nov 18, 3:20 AM)29.39 "Hg (Nov 21, 7:20 AM)
Average45 °F84%29.86 "Hg
* Reported Nov 16 4:20 AM — Dec 1 4:20 AM, Duisburg, Weather by CustomWeather, © 2015

Note: Actual official high and low records may vary slightly from our data, if they occured in-between our weather recording intervals... More about our weather records


Duisburg weather history for previous 24 hours

Time TempWeatherWind HumidityBarometerVisibility
4:20 AM
Tue, Dec 1
48 °FLight rain. Partly cloudy.8 mph94%30.07 "HgN/A
3:50 AM50 °FLight rain. Partly cloudy.12 mph88%30.07 "Hg4 mi
3:20 AM52 °FLight rain. Passing clouds.7 mph94%30.04 "Hg4 mi
2:50 AM52 °FLight rain. Partly cloudy.12 mph94%30.04 "HgN/A
2:20 AM52 °FRain. Partly cloudy.8 mph100%30.04 "Hg4 mi
1:50 AM52 °FLight rain. Fog.12 mph100%30.01 "Hg2 mi
12:50 AM52 °FLight rain. Fog.18 mph100%29.98 "Hg2 mi
12:20 AM52 °FLight rain. Fog.20 mph94%29.95 "Hg3 mi
11:20 PM
Mon, Nov 30
52 °FLight rain. Fog.22 mph94%29.92 "Hg3 mi
10:50 PM52 °FLight rain. Fog.22 mph94%29.92 "Hg3 mi
10:20 PM52 °FLight rain. Fog.22 mph94%29.92 "Hg3 mi
9:50 PM52 °FLight rain. Fog.24 mph94%29.89 "Hg3 mi
9:20 PM52 °FLight rain. Partly cloudy.25 mph94%29.89 "HgN/A
8:50 PM52 °FLight rain. Passing clouds.24 mph88%29.89 "HgN/A
8:20 PM52 °FLight rain. Passing clouds.26 mph88%29.86 "HgN/A
7:50 PM52 °FLight rain. Partly cloudy.29 mph88%29.86 "HgN/A
7:20 PM52 °FLight rain. Partly cloudy.25 mph88%29.86 "HgN/A
6:50 PM50 °FRain. Passing clouds.25 mph94%29.86 "HgN/A
6:20 PM52 °FRain. Mostly cloudy.23 mph88%29.89 "Hg6 mi
5:50 PM52 °FLight rain. Passing clouds.25 mph82%29.89 "HgN/A
5:20 PM52 °FLight rain. Passing clouds.25 mph82%29.89 "HgN/A
4:50 PM50 °FLight rain. Passing clouds.22 mph94%29.89 "HgN/A
4:20 PM52 °FLight rain. Partly sunny.24 mph88%29.92 "HgN/A
3:50 PM52 °FLight rain. Mostly cloudy.23 mph88%29.92 "HgN/A
3:20 PM52 °FLight rain. Partly sunny.22 mph88%29.92 "HgN/A
2:50 PM50 °FLight rain. Partly sunny.24 mph94%29.95 "Hg4 mi
2:20 PM50 °FLight rain. Partly sunny.20 mph94%29.95 "Hg5 mi
1:50 PM50 °FRain. Fog.18 mph94%29.98 "Hg3 mi
1:20 PM48 °FRain. Broken clouds.14 mph94%29.98 "Hg4 mi
12:50 PM46 °FLight rain. Broken clouds.13 mph100%30.01 "Hg4 mi
12:20 PM46 °FLight rain. Partly sunny.10 mph93%30.01 "Hg5 mi
11:50 AM46 °FLight rain. Partly sunny.8 mph87%30.07 "HgN/A
11:20 AM45 °FLight rain. Broken clouds.10 mph87%30.07 "Hg6 mi
10:50 AM46 °FLight rain. More clouds than sun.13 mph82%30.07 "HgN/A
10:20 AM46 °FLight rain. Clear.12 mph76%30.09 "HgN/A
9:50 AM46 °FSunny.10 mph76%30.09 "Hg10 mi
9:20 AM45 °FMore clouds than sun.8 mph81%30.09 "HgN/A
8:50 AM45 °FOvercast.9 mph81%30.09 "HgN/A
8:20 AM45 °FMore clouds than sun.7 mph76%30.09 "HgN/A
7:50 AM46 °FMostly cloudy.10 mph71%30.09 "HgN/A
7:20 AM46 °FMostly cloudy.9 mph71%30.07 "HgN/A
6:50 AM48 °FPartly cloudy.12 mph66%30.07 "HgN/A
6:20 AM48 °FLight rain. Passing clouds.9 mph71%30.04 "HgN/A
5:50 AM48 °FLight rain. Passing clouds.10 mph71%30.04 "HgN/A
5:20 AM48 °FClear.15 mph71%30.01 "Hg10 mi
Weather by CustomWeather, © 2015

See weather overviewHow to use our weather pages